owner,sensor,date,latitude,longitude,vertical_datum,sea_water_practical_salinity,qcFlag 
ENP,ioos.station.NOAA.NDBC:PKYF1:1,2015-12-01T00:00:00Z,24.9180,-80.7470,1.5,36.43,1111122 
ENP,ioos.station.NOAA.NDBC:PKYF1:1,2015-12-01T01:00:00Z,24.9180,-80.7470,1.5,36.43,1111122 
ENP,ioos.station.NOAA.NDBC:PKYF1:1,2015-12-01T02:00:00Z,24.9180,-80.7470,1.5,36.43,1111122 
ENP,ioos.station.NOAA.NDBC:PKYF1:1,2015-12-01T04:00:00Z,24.9180,-80.7470,1.5,36.36,1111122 
ENP,ioos.station.NOAA.NDBC:PKYF1:1,2015-12-01T05:00:00Z,24.9180,-80.7470,1.5,36.36,1111122 
ENP,ioos.station.NOAA.NDBC:PKYF1:1,2015-12-01T06:00:00Z,24.9180,-80.7470,1.5,36.43,1111122 
ENP,ioos.station.NOAA.NDBC:PKYF1:1,2015-12-01T07:00:00Z,24.9180,-80.7470,1.5,36.43,1111122 
ENP,ioos.station.NOAA.NDBC:PKYF1:1,2015-12-01T08:00:00Z,24.9180,-80.7470,1.5,36.43,1111122 
ENP,ioos.station.NOAA.NDBC:PKYF1:1,2015-12-01T09:00:00Z,24.9180,-80.7470,1.5,36.36,1111122 
ENP,ioos.station.NOAA.NDBC:PKYF1:1,2015-12-01T10:00:00Z,24.9180,-80.7470,1.5,36.43,1111122 
ENP,ioos.station.NOAA.NDBC:PKYF1:1,2015-12-01T11:00:00Z,24.9180,-80.7470,1.5,36.43,1111122 
ENP,ioos.station.NOAA.NDBC:PKYF1:1,2015-12-01T12:00:00Z,24.9180,-80.7470,1.5,36.43,1111122 
ENP,ioos.station.NOAA.NDBC:PKYF1:1,2015-12-01T13:00:00Z,24.9180,-80.7470,1.5,36.43,1111122 
ENP,ioos.station.NOAA.NDBC:PKYF1:1,2015-12-01T14:00:00Z,24.9180,-80.7470,1.5,36.43,1111122 
ENP,ioos.station.NOAA.NDBC:PKYF1:1,2015-12-01T15:00:00Z,24.9180,-80.7470,1.5,36.43,1111122 
ENP,ioos.station.NOAA.NDBC:PKYF1:1,2015-12-01T16:00:00Z,24.9180,-80.7470,1.5,36.43,1111122 
ENP,ioos.station.NOAA.NDBC:PKYF1:1,2015-12-01T17:00:00Z,24.9180,-80.7470,1.5,36.36,1111122 
ENP,ioos.station.NOAA.NDBC:PKYF1:1,2015-12-01T18:00:00Z,24.9180,-80.7470,1.5,36.36,1111122 
ENP,ioos.station.NOAA.NDBC:PKYF1:1,2015-12-01T19:00:00Z,24.9180,-80.7470,1.5,36.36,1111122 
ENP,ioos.station.NOAA.NDBC:PKYF1:1,2015-12-01T20:00:00Z,24.9180,-80.7470,1.5,36.28,1111122 
ENP,ioos.station.NOAA.NDBC:PKYF1:1,2015-12-01T21:00:00Z,24.9180,-80.7470,1.5,36.36,1111122 
ENP,ioos.station.NOAA.NDBC:PKYF1:1,2015-12-01T22:00:00Z,24.9180,-80.7470,1.5,36.36,1111122 
ENP,ioos.station.NOAA.NDBC:PKYF1:1,2015-12-01T23:00:00Z,24.9180,-80.7470,1.5,36.36,1111122 
ENP,ioos.station.NOAA.NDBC:PKYF1:1,2015-12-02T00:00:00Z,24.9180,-80.7470,1.5,36.36,1111122 
ENP,ioos.station.NOAA.NDBC:PKYF1:1,2015-12-02T01:00:00Z,24.9180,-80.7470,1.5,36.36,1111122 
ENP,ioos.station.NOAA.NDBC:PKYF1:1,2015-12-02T02:00:00Z,24.9180,-80.7470,1.5,36.36,1111122 
ENP,ioos.station.NOAA.NDBC:PKYF1:1,2015-12-02T04:00:00Z,24.9180,-80.7470,1.5,36.36,1111122 
ENP,ioos.station.NOAA.NDBC:PKYF1:1,2015-12-02T05:00:00Z,24.9180,-80.7470,1.5,36.21,1111122 
ENP,ioos.station.NOAA.NDBC:PKYF1:1,2015-12-02T06:00:00Z,24.9180,-80.7470,1.5,36.21,1111122 
ENP,ioos.station.NOAA.NDBC:PKYF1:1,2015-12-02T07:00:00Z,24.9180,-80.7470,1.5,36.21,1111122 
ENP,ioos.station.NOAA.NDBC:PKYF1:1,2015-12-02T08:00:00Z,24.9180,-80.7470,1.5,36.21,1111122 
ENP,ioos.station.NOAA.NDBC:PKYF1:1,2015-12-02T09:00:00Z,24.9180,-80.7470,1.5,36.21,1111122 
ENP,ioos.station.NOAA.NDBC:PKYF1:1,2015-12-02T10:00:00Z,24.9180,-80.7470,1.5,36.28,1111122 
ENP,ioos.station.NOAA.NDBC:PKYF1:1,2015-12-02T11:00:00Z,24.9180,-80.7470,1.5,36.28,1111122 
ENP,ioos.station.NOAA.NDBC:PKYF1:1,2015-12-02T12:00:00Z,24.9180,-80.7470,1.5,36.28,1111122 
ENP,ioos.station.NOAA.NDBC:PKYF1:1,2015-12-02T13:00:00Z,24.9180,-80.7470,1.5,36.28,1111122 
ENP,ioos.station.NOAA.NDBC:PKYF1:1,2015-12-02T14:00:00Z,24.9180,-80.7470,1.5,36.28,1111122 
ENP,ioos.station.NOAA.NDBC:PKYF1:1,2015-12-02T15:00:00Z,24.9180,-80.7470,1.5,36.21,1111122 
ENP,ioos.station.NOAA.NDBC:PKYF1:1,2015-12-02T16:00:00Z,24.9180,-80.7470,1.5,36.21,1111122 
ENP,ioos.station.NOAA.NDBC:PKYF1:1,2015-12-02T17:00:00Z,24.9180,-80.7470,1.5,36.21,1111122 
ENP,ioos.station.NOAA.NDBC:PKYF1:1,2015-12-02T18:00:00Z,24.9180,-80.7470,1.5,36.21,1111122 
ENP,ioos.station.NOAA.NDBC:PKYF1:1,2015-12-02T19:00:00Z,24.9180,-80.7470,1.5,36.14,1111122 
ENP,ioos.station.NOAA.NDBC:PKYF1:1,2015-12-02T20:00:00Z,24.9180,-80.7470,1.5,36.14,1111122 
ENP,ioos.station.NOAA.NDBC:PKYF1:1,2015-12-02T21:00:00Z,24.9180,-80.7470,1.5,36.14,1111122 
ENP,ioos.station.NOAA.NDBC:PKYF1:1,2015-12-02T22:00:00Z,24.9180,-80.7470,1.5,36.14,1111122 
ENP,ioos.station.NOAA.NDBC:PKYF1:1,2015-12-02T23:00:00Z,24.9180,-80.7470,1.5,36.14,1111122 
ENP,ioos.station.NOAA.NDBC:PKYF1:1,2015-12-03T00:00:00Z,24.9180,-80.7470,1.5,36.14,1111122 
ENP,ioos.station.NOAA.NDBC:PKYF1:1,2015-12-03T01:00:00Z,24.9180,-80.7470,1.5,36.14,1111122 
ENP,ioos.station.NOAA.NDBC:PKYF1:1,2015-12-03T02:00:00Z,24.9180,-80.7470,1.5,36.14,1111122 
ENP,ioos.station.NOAA.NDBC:PKYF1:1,2015-12-03T04:00:00Z,24.9180,-80.7470,1.5,36.14,1111122 
ENP,ioos.station.NOAA.NDBC:PKYF1:1,2015-12-03T05:00:00Z,24.9180,-80.7470,1.5,36.14,1111122 
ENP,ioos.station.NOAA.NDBC:PKYF1:1,2015-12-03T06:00:00Z,24.9180,-80.7470,1.5,36.14,1111122 
ENP,ioos.station.NOAA.NDBC:PKYF1:1,2015-12-03T07:00:00Z,24.9180,-80.7470,1.5,36.14,1111122 
ENP,ioos.station.NOAA.NDBC:PKYF1:1,2015-12-03T08:00:00Z,24.9180,-80.7470,1.5,36.14,1111122 
ENP,ioos.station.NOAA.NDBC:PKYF1:1,2015-12-03T09:00:00Z,24.9180,-80.7470,1.5,36.06,1111122 
ENP,ioos.station.NOAA.NDBC:PKYF1:1,2015-12-03T10:00:00Z,24.9180,-80.7470,1.5,36.14,1111122 
ENP,ioos.station.NOAA.NDBC:PKYF1:1,2015-12-03T11:00:00Z,24.9180,-80.7470,1.5,36.06,1111122 
ENP,ioos.station.NOAA.NDBC:PKYF1:1,2015-12-03T12:00:00Z,24.9180,-80.7470,1.5,36.14,1111122 
ENP,ioos.station.NOAA.NDBC:PKYF1:1,2015-12-03T13:00:00Z,24.9180,-80.7470,1.5,36.14,1111122 
ENP,ioos.station.NOAA.NDBC:PKYF1:1,2015-12-03T14:00:00Z,24.9180,-80.7470,1.5,36.06,1111122 
ENP,ioos.station.NOAA.NDBC:PKYF1:1,2015-12-03T15:00:00Z,24.9180,-80.7470,1.5,36.06,1111122 
ENP,ioos.station.NOAA.NDBC:PKYF1:1,2015-12-03T16:00:00Z,24.9180,-80.7470,1.5,36.06,1111122 
ENP,ioos.station.NOAA.NDBC:PKYF1:1,2015-12-03T17:00:00Z,24.9180,-80.7470,1.5,35.99,1111122 
ENP,ioos.station.NOAA.NDBC:PKYF1:1,2015-12-03T18:00:00Z,24.9180,-80.7470,1.5,35.99,1111122 
ENP,ioos.station.NOAA.NDBC:PKYF1:1,2015-12-03T19:00:00Z,24.9180,-80.7470,1.5,35.99,1111122 
ENP,ioos.station.NOAA.NDBC:PKYF1:1,2015-12-03T20:00:00Z,24.9180,-80.7470,1.5,35.69,1111122 
ENP,ioos.station.NOAA.NDBC:PKYF1:1,2015-12-03T21:00:00Z,24.9180,-80.7470,1.5,35.32,1111122 
ENP,ioos.station.NOAA.NDBC:PKYF1:1,2015-12-03T22:00:00Z,24.9180,-80.7470,1.5,35.62,1111122 
ENP,ioos.station.NOAA.NDBC:PKYF1:1,2015-12-03T23:00:00Z,24.9180,-80.7470,1.5,35.1,1111122 
ENP,ioos.station.NOAA.NDBC:PKYF1:1,2015-12-04T00:00:00Z,24.9180,-80.7470,1.5,35.1,1111122 
ENP,ioos.station.NOAA.NDBC:PKYF1:1,2015-12-04T01:00:00Z,24.9180,-80.7470,1.5,35.03,1111122 
ENP,ioos.station.NOAA.NDBC:PKYF1:1,2015-12-04T02:00:00Z,24.9180,-80.7470,1.5,35.03,1111122 
ENP,ioos.station.NOAA.NDBC:PKYF1:1,2015-12-04T04:00:00Z,24.9180,-80.7470,1.5,35.17,1111122 
ENP,ioos.station.NOAA.NDBC:PKYF1:1,2015-12-04T05:00:00Z,24.9180,-80.7470,1.5,35.25,1111122 
ENP,ioos.station.NOAA.NDBC:PKYF1:1,2015-12-04T06:00:00Z,24.9180,-80.7470,1.5,35.25,1111122 
ENP,ioos.station.NOAA.NDBC:PKYF1:1,2015-12-04T07:00:00Z,24.9180,-80.7470,1.5,34.66,1111122 
ENP,ioos.station.NOAA.NDBC:PKYF1:1,2015-12-04T08:00:00Z,24.9180,-80.7470,1.5,34.44,1111122 
ENP,ioos.station.NOAA.NDBC:PKYF1:1,2015-12-04T09:00:00Z,24.9180,-80.7470,1.5,34.44,1111122 
ENP,ioos.station.NOAA.NDBC:PKYF1:1,2015-12-04T10:00:00Z,24.9180,-80.7470,1.5,34.51,1111122 
ENP,ioos.station.NOAA.NDBC:PKYF1:1,2015-12-04T11:00:00Z,24.9180,-80.7470,1.5,34.58,1111122 
ENP,ioos.station.NOAA.NDBC:PKYF1:1,2015-12-04T12:00:00Z,24.9180,-80.7470,1.5,34.44,1111122 
ENP,ioos.station.NOAA.NDBC:PKYF1:1,2015-12-04T13:00:00Z,24.9180,-80.7470,1.5,34.36,1111122 
ENP,ioos.station.NOAA.NDBC:PKYF1:1,2015-12-04T14:00:00Z,24.9180,-80.7470,1.5,34.36,1111122 
ENP,ioos.station.NOAA.NDBC:PKYF1:1,2015-12-04T15:00:00Z,24.9180,-80.7470,1.5,34.36,1111122 
ENP,ioos.station.NOAA.NDBC:PKYF1:1,2015-12-04T16:00:00Z,24.9180,-80.7470,1.5,34.44,1111122 
ENP,ioos.station.NOAA.NDBC:PKYF1:1,2015-12-04T22:00:00Z,24.9180,-80.7470,1.5,34.29,1111122 
ENP,ioos.station.NOAA.NDBC:PKYF1:1,2015-12-05T04:00:00Z,24.9180,-80.7470,1.5,34.29,1111122 
ENP,ioos.station.NOAA.NDBC:PKYF1:1,2015-12-05T10:00:00Z,24.9180,-80.7470,1.5,34.36,1111122 
ENP,ioos.station.NOAA.NDBC:PKYF1:1,2015-12-05T16:00:00Z,24.9180,-80.7470,1.5,34.44,1111122 
ENP,ioos.station.NOAA.NDBC:PKYF1:1,2015-12-05T22:00:00Z,24.9180,-80.7470,1.5,34.36,1111122 
ENP,ioos.station.NOAA.NDBC:PKYF1:1,2015-12-06T04:00:00Z,24.9180,-80.7470,1.5,33.92,1111122 
ENP,ioos.station.NOAA.NDBC:PKYF1:1,2015-12-06T09:00:00Z,24.9180,-80.7470,1.5,34.07,1111122 
ENP,ioos.station.NOAA.NDBC:PKYF1:1,2015-12-06T14:00:00Z,24.9180,-80.7470,1.5,33.85,1111122 
ENP,ioos.station.NOAA.NDBC:PKYF1:1,2015-12-06T15:00:00Z,24.9180,-80.7470,1.5,33.77,1111122 
ENP,ioos.station.NOAA.NDBC:PKYF1:1,2015-12-06T16:00:00Z,24.9180,-80.7470,1.5,33.7,1111122 
ENP,ioos.station.NOAA.NDBC:PKYF1:1,2015-12-06T17:00:00Z,24.9180,-80.7470,1.5,33.63,1111122 
ENP,ioos.station.NOAA.NDBC:PKYF1:1,2015-12-06T18:00:00Z,24.9180,-80.7470,1.5,33.55,1111122 
ENP,ioos.station.NOAA.NDBC:PKYF1:1,2015-12-06T19:00:00Z,24.9180,-80.7470,1.5,33.63,1111122 
ENP,ioos.station.NOAA.NDBC:PKYF1:1,2015-12-06T20:00:00Z,24.9180,-80.7470,1.5,33.63,1111122 
ENP,ioos.station.NOAA.NDBC:PKYF1:1,2015-12-06T21:00:00Z,24.9180,-80.7470,1.5,33.63,1111122 
ENP,ioos.station.NOAA.NDBC:PKYF1:1,2015-12-06T22:00:00Z,24.9180,-80.7470,1.5,33.7,1111122 
ENP,ioos.station.NOAA.NDBC:PKYF1:1,2015-12-06T23:00:00Z,24.9180,-80.7470,1.5,33.63,1111122 
ENP,ioos.station.NOAA.NDBC:PKYF1:1,2015-12-07T00:00:00Z,24.9180,-80.7470,1.5,33.7,1111122 
ENP,ioos.station.NOAA.NDBC:PKYF1:1,2015-12-07T01:00:00Z,24.9180,-80.7470,1.5,33.7,1111122 
ENP,ioos.station.NOAA.NDBC:PKYF1:1,2015-12-07T02:00:00Z,24.9180,-80.7470,1.5,33.55,1111122 
ENP,ioos.station.NOAA.NDBC:PKYF1:1,2015-12-07T04:00:00Z,24.9180,-80.7470,1.5,33.26,1111122 
ENP,ioos.station.NOAA.NDBC:PKYF1:1,2015-12-07T05:00:00Z,24.9180,-80.7470,1.5,33.26,1111122 
ENP,ioos.station.NOAA.NDBC:PKYF1:1,2015-12-07T06:00:00Z,24.9180,-80.7470,1.5,33.33,1111122 
ENP,ioos.station.NOAA.NDBC:PKYF1:1,2015-12-07T07:00:00Z,24.9180,-80.7470,1.5,33.26,1111122 
ENP,ioos.station.NOAA.NDBC:PKYF1:1,2015-12-07T08:00:00Z,24.9180,-80.7470,1.5,33.26,1111122 
ENP,ioos.station.NOAA.NDBC:PKYF1:1,2015-12-07T09:00:00Z,24.9180,-80.7470,1.5,33.04,1111122 
ENP,ioos.station.NOAA.NDBC:PKYF1:1,2015-12-07T10:00:00Z,24.9180,-80.7470,1.5,32.97,1111122 
ENP,ioos.station.NOAA.NDBC:PKYF1:1,2015-12-07T11:00:00Z,24.9180,-80.7470,1.5,32.9,1111122 
ENP,ioos.station.NOAA.NDBC:PKYF1:1,2015-12-07T12:00:00Z,24.9180,-80.7470,1.5,32.9,1111122 
ENP,ioos.station.NOAA.NDBC:PKYF1:1,2015-12-07T13:00:00Z,24.9180,-80.7470,1.5,32.82,1111122 
ENP,ioos.station.NOAA.NDBC:PKYF1:1,2015-12-07T14:00:00Z,24.9180,-80.7470,1.5,32.82,1111122 
ENP,ioos.station.NOAA.NDBC:PKYF1:1,2015-12-07T15:00:00Z,24.9180,-80.7470,1.5,32.82,1111122 
ENP,ioos.station.NOAA.NDBC:PKYF1:1,2015-12-07T16:00:00Z,24.9180,-80.7470,1.5,32.82,1111122 
ENP,ioos.station.NOAA.NDBC:PKYF1:1,2015-12-07T18:00:00Z,24.9180,-80.7470,1.5,32.82,1111122 
ENP,ioos.station.NOAA.NDBC:PKYF1:1,2015-12-07T19:00:00Z,24.9180,-80.7470,1.5,32.82,1111122 
ENP,ioos.station.NOAA.NDBC:PKYF1:1,2015-12-07T20:00:00Z,24.9180,-80.7470,1.5,32.82,1111122 
ENP,ioos.station.NOAA.NDBC:PKYF1:1,2015-12-07T21:00:00Z,24.9180,-80.7470,1.5,32.82,1111122 
ENP,ioos.station.NOAA.NDBC:PKYF1:1,2015-12-07T22:00:00Z,24.9180,-80.7470,1.5,32.82,1111122 
ENP,ioos.station.NOAA.NDBC:PKYF1:1,2015-12-07T23:00:00Z,24.9180,-80.7470,1.5,32.82,1111122 
ENP,ioos.station.NOAA.NDBC:PKYF1:1,2015-12-08T00:00:00Z,24.9180,-80.7470,1.5,32.82,1111122 
ENP,ioos.station.NOAA.NDBC:PKYF1:1,2015-12-08T01:00:00Z,24.9180,-80.7470,1.5,32.82,1111122 
ENP,ioos.station.NOAA.NDBC:PKYF1:1,2015-12-08T02:00:00Z,24.9180,-80.7470,1.5,32.82,1111122 
ENP,ioos.station.NOAA.NDBC:PKYF1:1,2015-12-08T03:00:00Z,24.9180,-80.7470,1.5,32.82,1111122 
ENP,ioos.station.NOAA.NDBC:PKYF1:1,2015-12-08T04:00:00Z,24.9180,-80.7470,1.5,32.6,1111122 
ENP,ioos.station.NOAA.NDBC:PKYF1:1,2015-12-08T05:00:00Z,24.9180,-80.7470,1.5,32.38,1111122 
ENP,ioos.station.NOAA.NDBC:PKYF1:1,2015-12-08T06:00:00Z,24.9180,-80.7470,1.5,32.38,1111122 
ENP,ioos.station.NOAA.NDBC:PKYF1:1,2015-12-08T07:00:00Z,24.9180,-80.7470,1.5,32.46,1111122 
ENP,ioos.station.NOAA.NDBC:PKYF1:1,2015-12-08T09:00:00Z,24.9180,-80.7470,1.5,32.6,1111122 
ENP,ioos.station.NOAA.NDBC:PKYF1:1,2015-12-10T16:00:00Z,24.9180,-80.7470,1.5,32.02,1111122 
ENP,ioos.station.NOAA.NDBC:PKYF1:1,2015-12-10T17:00:00Z,24.9180,-80.7470,1.5,32.09,1111122 
ENP,ioos.station.NOAA.NDBC:PKYF1:1,2015-12-10T18:00:00Z,24.9180,-80.7470,1.5,31.95,1111122 
ENP,ioos.station.NOAA.NDBC:PKYF1:1,2015-12-10T20:00:00Z,24.9180,-80.7470,1.5,31.95,1111122 
ENP,ioos.station.NOAA.NDBC:PKYF1:1,2015-12-10T21:00:00Z,24.9180,-80.7470,1.5,32.02,1111122 
ENP,ioos.station.NOAA.NDBC:PKYF1:1,2015-12-10T23:00:00Z,24.9180,-80.7470,1.5,31.95,1111122 
ENP,ioos.station.NOAA.NDBC:PKYF1:1,2015-12-11T00:00:00Z,24.9180,-80.7470,1.5,31.95,1111122 
ENP,ioos.station.NOAA.NDBC:PKYF1:1,2015-12-11T02:00:00Z,24.9180,-80.7470,1.5,32.17,1111122 
ENP,ioos.station.NOAA.NDBC:PKYF1:1,2015-12-11T04:00:00Z,24.9180,-80.7470,1.5,32.09,1111122 
ENP,ioos.station.NOAA.NDBC:PKYF1:1,2015-12-11T05:00:00Z,24.9180,-80.7470,1.5,32.09,1111122 
ENP,ioos.station.NOAA.NDBC:PKYF1:1,2015-12-11T06:00:00Z,24.9180,-80.7470,1.5,32.17,1111122 
ENP,ioos.station.NOAA.NDBC:PKYF1:1,2015-12-11T07:00:00Z,24.9180,-80.7470,1.5,32.09,1111122 
ENP,ioos.station.NOAA.NDBC:PKYF1:1,2015-12-11T09:00:00Z,24.9180,-80.7470,1.5,32.17,1111122 
ENP,ioos.station.NOAA.NDBC:PKYF1:1,2015-12-11T10:00:00Z,24.9180,-80.7470,1.5,32.31,1111122 
ENP,ioos.station.NOAA.NDBC:PKYF1:1,2015-12-11T11:00:00Z,24.9180,-80.7470,1.5,32.24,1111122 
ENP,ioos.station.NOAA.NDBC:PKYF1:1,2015-12-11T12:00:00Z,24.9180,-80.7470,1.5,32.24,1111122 
ENP,ioos.station.NOAA.NDBC:PKYF1:1,2015-12-11T14:00:00Z,24.9180,-80.7470,1.5,32.24,1111122 
ENP,ioos.station.NOAA.NDBC:PKYF1:1,2015-12-11T15:00:00Z,24.9180,-80.7470,1.5,32.24,1111122 
ENP,ioos.station.NOAA.NDBC:PKYF1:1,2015-12-11T17:00:00Z,24.9180,-80.7470,1.5,32.17,1111122 
ENP,ioos.station.NOAA.NDBC:PKYF1:1,2015-12-11T19:00:00Z,24.9180,-80.7470,1.5,31.95,1111122 
ENP,ioos.station.NOAA.NDBC:PKYF1:1,2015-12-11T20:00:00Z,24.9180,-80.7470,1.5,31.95,1111122 
ENP,ioos.station.NOAA.NDBC:PKYF1:1,2015-12-11T21:00:00Z,24.9180,-80.7470,1.5,31.95,1111122 
ENP,ioos.station.NOAA.NDBC:PKYF1:1,2015-12-11T22:00:00Z,24.9180,-80.7470,1.5,31.95,1111122 
ENP,ioos.station.NOAA.NDBC:PKYF1:1,2015-12-11T23:00:00Z,24.9180,-80.7470,1.5,31.95,1111122 
ENP,ioos.station.NOAA.NDBC:PKYF1:1,2015-12-12T00:00:00Z,24.9180,-80.7470,1.5,32.02,1111122 
ENP,ioos.station.NOAA.NDBC:PKYF1:1,2015-12-12T01:00:00Z,24.9180,-80.7470,1.5,31.95,1111122 
ENP,ioos.station.NOAA.NDBC:PKYF1:1,2015-12-12T04:00:00Z,24.9180,-80.7470,1.5,32.02,1111122 
ENP,ioos.station.NOAA.NDBC:PKYF1:1,2015-12-12T05:00:00Z,24.9180,-80.7470,1.5,32.09,1111122 
ENP,ioos.station.NOAA.NDBC:PKYF1:1,2015-12-12T07:00:00Z,24.9180,-80.7470,1.5,32.02,1111122 
ENP,ioos.station.NOAA.NDBC:PKYF1:1,2015-12-12T09:00:00Z,24.9180,-80.7470,1.5,32.02,1111122 
ENP,ioos.station.NOAA.NDBC:PKYF1:1,2015-12-12T10:00:00Z,24.9180,-80.7470,1.5,32.02,1111122 
ENP,ioos.station.NOAA.NDBC:PKYF1:1,2015-12-12T11:00:00Z,24.9180,-80.7470,1.5,30.64,1111122 
ENP,ioos.station.NOAA.NDBC:PKYF1:1,2015-12-12T13:00:00Z,24.9180,-80.7470,1.5,31.87,1111122 
ENP,ioos.station.NOAA.NDBC:PKYF1:1,2015-12-12T14:00:00Z,24.9180,-80.7470,1.5,31.87,1111122 
ENP,ioos.station.NOAA.NDBC:PKYF1:1,2015-12-12T15:00:00Z,24.9180,-80.7470,1.5,31.87,1111122 
ENP,ioos.station.NOAA.NDBC:PKYF1:1,2015-12-12T16:00:00Z,24.9180,-80.7470,1.5,31.95,1111122 
ENP,ioos.station.NOAA.NDBC:PKYF1:1,2015-12-12T17:00:00Z,24.9180,-80.7470,1.5,31.8,1111122 
ENP,ioos.station.NOAA.NDBC:PKYF1:1,2015-12-12T18:00:00Z,24.9180,-80.7470,1.5,31.8,1111122 
ENP,ioos.station.NOAA.NDBC:PKYF1:1,2015-12-12T21:00:00Z,24.9180,-80.7470,1.5,31.73,1111122 
ENP,ioos.station.NOAA.NDBC:PKYF1:1,2015-12-12T23:00:00Z,24.9180,-80.7470,1.5,31.8,1111122 
ENP,ioos.station.NOAA.NDBC:PKYF1:1,2015-12-13T00:00:00Z,24.9180,-80.7470,1.5,31.87,1111122 
ENP,ioos.station.NOAA.NDBC:PKYF1:1,2015-12-13T01:00:00Z,24.9180,-80.7470,1.5,31.87,1111122 
ENP,ioos.station.NOAA.NDBC:PKYF1:1,2015-12-13T04:00:00Z,24.9180,-80.7470,1.5,31.8,1111122 
ENP,ioos.station.NOAA.NDBC:PKYF1:1,2015-12-13T05:00:00Z,24.9180,-80.7470,1.5,31.8,1111122 
ENP,ioos.station.NOAA.NDBC:PKYF1:1,2015-12-13T06:00:00Z,24.9180,-80.7470,1.5,31.95,1111122 
ENP,ioos.station.NOAA.NDBC:PKYF1:1,2015-12-13T07:00:00Z,24.9180,-80.7470,1.5,32.02,1111122 
ENP,ioos.station.NOAA.NDBC:PKYF1:1,2015-12-13T09:00:00Z,24.9180,-80.7470,1.5,31.87,1111122 
ENP,ioos.station.NOAA.NDBC:PKYF1:1,2015-12-13T11:00:00Z,24.9180,-80.7470,1.5,31.73,1111122 
ENP,ioos.station.NOAA.NDBC:PKYF1:1,2015-12-13T12:00:00Z,24.9180,-80.7470,1.5,31.73,1111122 
ENP,ioos.station.NOAA.NDBC:PKYF1:1,2015-12-13T13:00:00Z,24.9180,-80.7470,1.5,31.73,1111122 
ENP,ioos.station.NOAA.NDBC:PKYF1:1,2015-12-13T14:00:00Z,24.9180,-80.7470,1.5,31.8,1111122 
ENP,ioos.station.NOAA.NDBC:PKYF1:1,2015-12-13T16:00:00Z,24.9180,-80.7470,1.5,31.8,1111122 
ENP,ioos.station.NOAA.NDBC:PKYF1:1,2015-12-13T17:00:00Z,24.9180,-80.7470,1.5,31.8,1111122 
ENP,ioos.station.NOAA.NDBC:PKYF1:1,2015-12-13T18:00:00Z,24.9180,-80.7470,1.5,31.8,1111122 
ENP,ioos.station.NOAA.NDBC:PKYF1:1,2015-12-13T20:00:00Z,24.9180,-80.7470,1.5,31.87,1111122 
ENP,ioos.station.NOAA.NDBC:PKYF1:1,2015-12-13T21:00:00Z,24.9180,-80.7470,1.5,31.87,1111122 
ENP,ioos.station.NOAA.NDBC:PKYF1:1,2015-12-13T22:00:00Z,24.9180,-80.7470,1.5,31.8,1111122 
ENP,ioos.station.NOAA.NDBC:PKYF1:1,2015-12-13T23:00:00Z,24.9180,-80.7470,1.5,31.73,1111122 
ENP,ioos.station.NOAA.NDBC:PKYF1:1,2015-12-14T00:00:00Z,24.9180,-80.7470,1.5,31.8,1111122 
ENP,ioos.station.NOAA.NDBC:PKYF1:1,2015-12-14T01:00:00Z,24.9180,-80.7470,1.5,31.87,1111122 
ENP,ioos.station.NOAA.NDBC:PKYF1:1,2015-12-14T12:00:00Z,24.9180,-80.7470,1.5,32.17,1111122 
ENP,ioos.station.NOAA.NDBC:PKYF1:1,2015-12-14T13:00:00Z,24.9180,-80.7470,1.5,32.09,1111122 
ENP,ioos.station.NOAA.NDBC:PKYF1:1,2015-12-14T14:00:00Z,24.9180,-80.7470,1.5,32.02,1111122 
ENP,ioos.station.NOAA.NDBC:PKYF1:1,2015-12-14T15:00:00Z,24.9180,-80.7470,1.5,32.09,1111122 
ENP,ioos.station.NOAA.NDBC:PKYF1:1,2015-12-14T16:00:00Z,24.9180,-80.7470,1.5,32.02,1111122 
ENP,ioos.station.NOAA.NDBC:PKYF1:1,2015-12-14T17:00:00Z,24.9180,-80.7470,1.5,32.02,1111122 
ENP,ioos.station.NOAA.NDBC:PKYF1:1,2015-12-14T19:00:00Z,24.9180,-80.7470,1.5,32.17,1111122 
ENP,ioos.station.NOAA.NDBC:PKYF1:1,2015-12-14T21:00:00Z,24.9180,-80.7470,1.5,32.17,1111122 
ENP,ioos.station.NOAA.NDBC:PKYF1:1,2015-12-14T22:00:00Z,24.9180,-80.7470,1.5,32.09,1111122 
ENP,ioos.station.NOAA.NDBC:PKYF1:1,2015-12-14T23:00:00Z,24.9180,-80.7470,1.5,32.02,1111122 
ENP,ioos.station.NOAA.NDBC:PKYF1:1,2015-12-15T01:00:00Z,24.9180,-80.7470,1.5,32.02,1111122 
ENP,ioos.station.NOAA.NDBC:PKYF1:1,2015-12-15T02:00:00Z,24.9180,-80.7470,1.5,31.95,1111122 
ENP,ioos.station.NOAA.NDBC:PKYF1:1,2015-12-15T04:00:00Z,24.9180,-80.7470,1.5,31.95,1111122 
ENP,ioos.station.NOAA.NDBC:PKYF1:1,2015-12-15T05:00:00Z,24.9180,-80.7470,1.5,32.02,1111122 
ENP,ioos.station.NOAA.NDBC:PKYF1:1,2015-12-15T06:00:00Z,24.9180,-80.7470,1.5,32.09,1111122 
ENP,ioos.station.NOAA.NDBC:PKYF1:1,2015-12-15T07:00:00Z,24.9180,-80.7470,1.5,32.24,1111122 
ENP,ioos.station.NOAA.NDBC:PKYF1:1,2015-12-15T08:00:00Z,24.9180,-80.7470,1.5,32.24,1111122 
ENP,ioos.station.NOAA.NDBC:PKYF1:1,2015-12-15T09:00:00Z,24.9180,-80.7470,1.5,32.31,1111122 
ENP,ioos.station.NOAA.NDBC:PKYF1:1,2015-12-15T10:00:00Z,24.9180,-80.7470,1.5,32.17,1111122 
ENP,ioos.station.NOAA.NDBC:PKYF1:1,2015-12-15T11:00:00Z,24.9180,-80.7470,1.5,32.02,1111122 
ENP,ioos.station.NOAA.NDBC:PKYF1:1,2015-12-15T12:00:00Z,24.9180,-80.7470,1.5,31.95,1111122 
ENP,ioos.station.NOAA.NDBC:PKYF1:1,2015-12-15T13:00:00Z,24.9180,-80.7470,1.5,31.95,1111122 
ENP,ioos.station.NOAA.NDBC:PKYF1:1,2015-12-15T14:00:00Z,24.9180,-80.7470,1.5,31.95,1111122 
ENP,ioos.station.NOAA.NDBC:PKYF1:1,2015-12-15T15:00:00Z,24.9180,-80.7470,1.5,31.95,1111122 
ENP,ioos.station.NOAA.NDBC:PKYF1:1,2015-12-15T17:00:00Z,24.9180,-80.7470,1.5,31.87,1111122 
ENP,ioos.station.NOAA.NDBC:PKYF1:1,2015-12-15T18:00:00Z,24.9180,-80.7470,1.5,31.87,1111122 
ENP,ioos.station.NOAA.NDBC:PKYF1:1,2015-12-15T20:00:00Z,24.9180,-80.7470,1.5,31.87,1111122 
ENP,ioos.station.NOAA.NDBC:PKYF1:1,2015-12-15T21:00:00Z,24.9180,-80.7470,1.5,31.87,1111122 
ENP,ioos.station.NOAA.NDBC:PKYF1:1,2015-12-15T23:00:00Z,24.9180,-80.7470,1.5,31.8,1111122 
ENP,ioos.station.NOAA.NDBC:PKYF1:1,2015-12-16T01:00:00Z,24.9180,-80.7470,1.5,31.73,1111122 
ENP,ioos.station.NOAA.NDBC:PKYF1:1,2015-12-16T02:00:00Z,24.9180,-80.7470,1.5,31.8,1111122 
ENP,ioos.station.NOAA.NDBC:PKYF1:1,2015-12-16T04:00:00Z,24.9180,-80.7470,1.5,31.8,1111122 
ENP,ioos.station.NOAA.NDBC:PKYF1:1,2015-12-16T05:00:00Z,24.9180,-80.7470,1.5,31.8,1111122 
ENP,ioos.station.NOAA.NDBC:PKYF1:1,2015-12-16T06:00:00Z,24.9180,-80.7470,1.5,31.8,1111122 
ENP,ioos.station.NOAA.NDBC:PKYF1:1,2015-12-16T07:00:00Z,24.9180,-80.7470,1.5,31.8,1111122 
ENP,ioos.station.NOAA.NDBC:PKYF1:1,2015-12-16T08:00:00Z,24.9180,-80.7470,1.5,31.87,1111122 
ENP,ioos.station.NOAA.NDBC:PKYF1:1,2015-12-16T09:00:00Z,24.9180,-80.7470,1.5,31.87,1111122 
ENP,ioos.station.NOAA.NDBC:PKYF1:1,2015-12-16T10:00:00Z,24.9180,-80.7470,1.5,31.8,1111122 
ENP,ioos.station.NOAA.NDBC:PKYF1:1,2015-12-16T11:00:00Z,24.9180,-80.7470,1.5,31.87,1111122 
ENP,ioos.station.NOAA.NDBC:PKYF1:1,2015-12-16T12:00:00Z,24.9180,-80.7470,1.5,31.87,1111122 
ENP,ioos.station.NOAA.NDBC:PKYF1:1,2015-12-16T13:00:00Z,24.9180,-80.7470,1.5,31.8,1111122 
ENP,ioos.station.NOAA.NDBC:PKYF1:1,2015-12-16T14:00:00Z,24.9180,-80.7470,1.5,31.8,1111122 
ENP,ioos.station.NOAA.NDBC:PKYF1:1,2015-12-16T15:00:00Z,24.9180,-80.7470,1.5,31.87,1111122 
ENP,ioos.station.NOAA.NDBC:PKYF1:1,2015-12-16T16:00:00Z,24.9180,-80.7470,1.5,31.87,1111122 
ENP,ioos.station.NOAA.NDBC:PKYF1:1,2015-12-16T17:00:00Z,24.9180,-80.7470,1.5,31.87,1111122 
ENP,ioos.station.NOAA.NDBC:PKYF1:1,2015-12-16T19:00:00Z,24.9180,-80.7470,1.5,31.87,1111122 
ENP,ioos.station.NOAA.NDBC:PKYF1:1,2015-12-16T20:00:00Z,24.9180,-80.7470,1.5,31.87,1111122 
ENP,ioos.station.NOAA.NDBC:PKYF1:1,2015-12-16T22:00:00Z,24.9180,-80.7470,1.5,31.87,1111122 
ENP,ioos.station.NOAA.NDBC:PKYF1:1,2015-12-16T23:00:00Z,24.9180,-80.7470,1.5,31.87,1111122 
ENP,ioos.station.NOAA.NDBC:PKYF1:1,2015-12-17T00:00:00Z,24.9180,-80.7470,1.5,32.17,1111122 
ENP,ioos.station.NOAA.NDBC:PKYF1:1,2015-12-17T01:00:00Z,24.9180,-80.7470,1.5,32.24,1111122 
ENP,ioos.station.NOAA.NDBC:PKYF1:1,2015-12-17T04:00:00Z,24.9180,-80.7470,1.5,32.31,1111122 
ENP,ioos.station.NOAA.NDBC:PKYF1:1,2015-12-17T05:00:00Z,24.9180,-80.7470,1.5,32.24,1111122 
ENP,ioos.station.NOAA.NDBC:PKYF1:1,2015-12-17T06:00:00Z,24.9180,-80.7470,1.5,32.09,1111122 
ENP,ioos.station.NOAA.NDBC:PKYF1:1,2015-12-17T07:00:00Z,24.9180,-80.7470,1.5,32.09,1111122 
ENP,ioos.station.NOAA.NDBC:PKYF1:1,2015-12-17T09:00:00Z,24.9180,-80.7470,1.5,31.95,1111122 
ENP,ioos.station.NOAA.NDBC:PKYF1:1,2015-12-17T10:00:00Z,24.9180,-80.7470,1.5,31.95,1111122 
ENP,ioos.station.NOAA.NDBC:PKYF1:1,2015-12-17T11:00:00Z,24.9180,-80.7470,1.5,31.95,1111122 
ENP,ioos.station.NOAA.NDBC:PKYF1:1,2015-12-17T12:00:00Z,24.9180,-80.7470,1.5,31.95,1111122 
ENP,ioos.station.NOAA.NDBC:PKYF1:1,2015-12-17T13:00:00Z,24.9180,-80.7470,1.5,31.95,1111122 
ENP,ioos.station.NOAA.NDBC:PKYF1:1,2015-12-17T14:00:00Z,24.9180,-80.7470,1.5,31.95,1111122 
ENP,ioos.station.NOAA.NDBC:PKYF1:1,2015-12-17T15:00:00Z,24.9180,-80.7470,1.5,31.95,1111122 
ENP,ioos.station.NOAA.NDBC:PKYF1:1,2015-12-17T16:00:00Z,24.9180,-80.7470,1.5,31.95,1111122 
ENP,ioos.station.NOAA.NDBC:PKYF1:1,2015-12-17T17:00:00Z,24.9180,-80.7470,1.5,31.95,1111122 
ENP,ioos.station.NOAA.NDBC:PKYF1:1,2015-12-17T18:00:00Z,24.9180,-80.7470,1.5,32.02,1111122 
ENP,ioos.station.NOAA.NDBC:PKYF1:1,2015-12-17T20:00:00Z,24.9180,-80.7470,1.5,31.8,1111122 
ENP,ioos.station.NOAA.NDBC:PKYF1:1,2015-12-17T21:00:00Z,24.9180,-80.7470,1.5,31.8,1111122 